119P/Parker-Hartley

Epoch 2005 May 30.0 TT = JDT 2453520.5  

T 2005 May 24.33721 TT                                  Nakano

q   3.0444987            (2000.0)            P               Q

n   0.11082885     Peri.  181.41024     +0.41471794     -0.90630771

a   4.2924064      Node   244.09391     +0.83574551     +0.41472814

e   0.2907245      Incl.    5.18784     +0.35991453     +0.08128287

P   8.89

From 413 observations 1986-2004, mean residual 0".70.

   Nongravitational parameters Y1 = -0.03 +/- 0.02, Y2 = +0.0104 +/- 0.0003.

   Sublimating molecule = CO (or N2) using Yabushita's theory (MN 283, 347).

Residuals in seconds of arc 

1986/                     960120 691  1.1+  0.2+    040910 A32  0.2-  0.2-  

860929 046 (0.5+  3.9-)   960123 704  1.0+  0.0     040910 A32  0.7-  0.4-  

860929 046  1.0-  1.8-    960123 704 (2.3+  0.8+)   040910 A32  1.2-  0.1-  

860930 046  0.6+  1.2-    960123 704 (0.0   2.2+)   040910 615  0.4-  0.1+  

860930 046  1.2+  0.9-    960124 704  0.3+  0.3+    040910 615  0.5-  0.0   

861001 046  1.1+  2.0-    960124 704  1.4+  0.2+    040910 615  0.4-  0.0   

861001 046  0.8-  2.0-    960124 704  1.2+  0.3+    040910 704  0.5+  1.3+  

861003 054  0.8+  0.3-    960209 107  0.4-  0.4+    040910 704  0.0   0.4-  

861004 054  0.3-  0.2-    960209 107  1.5-  0.1+    040910 704  0.2+  0.1-  

861008 054  0.8-  1.4-    961022 360  0.3+  0.2+    040910 H06  1.1-  1.0+  

861008 054  1.4+  0.1-    961022 360  0.1-  0.0     040910 H06  0.1-  0.5+  

861010 095 (4.3-  0.1+)   961104 118  0.2-  0.3+    040910 H06  1.1-  0.5+  

1989/                     961104 118  0.1-  0.1+    040911 A41  0.7-  0.7-  

890211 413(24.6-  8.8+)   961106 360  0.4-  0.1+    040911 A41  1.5-  0.8-  

890211 413  2.2-  0.0     961106 360  0.4-  0.1+    040911 A41  0.9-  1.1-  

890302 413  1.0+  0.1+    961116 897  0.6-  0.4+    040911 A41  0.8-  0.4-  

890302 413  1.1+  0.4-    961116 897 (2.5-  0.4+)   040912 213  0.1+  0.6+  

890303 474  1.5+  0.9+    961117 691  0.4-  0.4-    040912 213  0.3+  0.8+  

890303 474  0.1-  1.7+    961117 691  0.3-  0.5-    040912 213  0.2+  0.8+  

890304 474  1.9+  0.8-    961123 118  0.7-  0.1+    040913 704  1.0+  0.1-  

890304 474  2.1+  0.9-    961123 118  0.8-  0.2+    040913 704 (2.7+  3.7-) 

890304 413  1.7+  1.0-    961202 118  0.1-  0.4+    040913 704  0.6-  0.4+  

890305 413  1.2+  1.1-    961206 900  1.8-  0.6+    040913 704  0.6-  0.6-  

890306 010  0.6-  2.1+    961206 900 (2.2-  0.2+)   040915 699 (2.6-  1.1-) 

890306 010  2.1+  0.2+    961210 801  0.2-  0.3-    040915 699  1.6-  0.6-  

890308 897  1.4-  1.5-    961210 801  0.8+  0.7-    040915 699  1.1-  0.5-  

890308 897(10.0-  2.0+)   961211 867  0.7-  0.3+    040915 699  0.9-  0.2-  

890308 372  2.0-  0.9+    961211 867  0.6-  0.1+    040916 A32  0.5-  0.5+  

890308 372 (3.6-  3.9+)   961214 691  0.1+  0.8+    040916 A32  0.9-  0.1+  

890311 372 (1.4+  2.6+)   961214 691  0.1+  0.9+    040916 A32  0.4-  0.3-  

890311 372  0.9-  1.8+    961214 691  0.1+  1.1+    040918 048  0.0   0.0   

890326 046 (3.8+  1.3-)   961214 421  1.0-  0.5+    040918 048  0.2-  0.3+  

890326 046  2.3-  1.1-    961214 421  0.6-  0.1+    040918 048  0.4-  0.9-  

1995/                     961214 421  0.7-  0.4+    040918 048  0.1+  0.2-  

950623 691  0.4+  0.1-    961214 896 (4.9-  1.1+)   040918 704  0.4+  0.9+  

950623 691  0.0   0.2-    961214 896  1.0+  0.2-    040918 704  0.3+  0.6+  

950625 691  0.4-  1.2-    961218 372 (4.2-  6.7+)   040918 704  0.2+  0.5-  

950625 691  0.4-  1.2-    961218 372 (3.5-  6.0+)   040918 704  0.0   1.1+  

950801 360  0.3-  0.6-    961219 355  1.3-  0.6+    040918 704  0.0   0.5+  

950801 360  0.6-  0.5-    961219 355  0.7-  0.5+    040918 704 (0.4-  2.1+) 

950801 360  0.2-  0.2-    961219 897  0.5+  0.9+    040918 704  1.3+  0.3-  

950803 118  0.9-  0.5-    961219 897  0.4-  0.2+    040918 704  0.6-  1.3+  

950803 118  0.4-  0.9-    961219 900  0.0   0.5+    040918 704  0.1-  0.3+  

950804 118  0.6-  0.6-    961219 897  1.3-  0.2+    040918 704  0.0   0.9+  

950807 360  0.2-  0.3-    961227 118  0.2-  0.5+    040918 704  0.5-  0.8+  

950807 360  0.3-  0.3-    961227 118  0.5-  0.4+    040918 704  0.2+  1.3+  

950807 360  0.1+  0.2-    961227 118  0.2-  0.2+    040918 704  0.5-  1.1+  

950825 950  0.0   0.2+    961228 118  0.1-  0.2+    040918 704  0.3-  0.0   

950903 691  0.0   0.1-    961228 118  0.2-  0.2+    040918 704  0.3+  0.3+  

950903 691  0.1+  0.1-    961228 118  0.4-  0.3+    040918 A54 (4.0+  1.2+) 

950905 360  0.0   0.5-    961230 900 (2.1-  0.8+)   040918 A54 (6.6+  2.6+) 

950905 360  0.0   0.2-    1997/                     040918 A54 (7.0+  3.7+) 

950905 360  0.1-  0.5-    970102 355  1.1-  0.4+    040918 215  1.0+  0.1+  

950907 046  0.4-  0.4-    970102 355  1.0-  0.1-    040918 215  0.4+  0.0   

950907 046  1.3-  0.0     970103 897  0.3-  0.4+    040922 704  0.0   0.4+  

950907 046  1.2-  0.1-    970103 897  0.4-  0.6-    040922 704  0.2-  0.4+  

950918 046  0.1-  0.5-    970111 360  0.2+  0.1-    040922 704  0.2-  0.7+  

950918 046  0.3-  0.3-    970111 360  0.1+  0.2+    040922 704  1.2-  0.3-  

950918 046  0.1-  0.4-    970116 402  0.6+  0.2+    040926 213  0.2+  0.2-  

950918 360  0.4+  0.1+    970116 402  0.4+  0.0     040926 213  0.5+  0.0   

950918 360  0.2-  0.0     970116 402  0.2+  0.0     040926 213  0.2+  0.0   

950918 360  0.1+  0.3-    970127 118  0.1-  0.6+    041004 699  1.7-  1.2-  

950918 900  0.1-  0.4-    970129 900  0.3-  0.2+    041004 699  1.5-  0.8-  

950918 900  0.3-  0.8-    970129 900  0.1-  1.7+    041004 699  0.9-  0.6-  

950925 118  0.2-  0.3-    970202 118  0.7+  0.2+    041004 699  1.7-  1.1-  

950926 118  0.2+  0.0     970202 118  0.6+  0.4+    041006 D70  0.5-  0.9+  

950926 587 (1.6+  2.8+)   970209 360  1.0+  0.1+    041006 D70  0.5-  0.5-  

950926 587  0.8-  0.1+    970209 360  0.8+  0.2+    041007 I77  0.5+  1.1-  

950927 587  0.0   0.5-    970209 046  0.8+  0.3+    041007 I77  0.6+  0.7-  

950927 587  0.4+  0.5-    970209 046  1.0+  0.3+    041007 I77  0.6+  0.1+  

950928 587  0.2+  0.3-    970209 046  0.9+  0.1+    041007 699 (2.6-  1.5-) 

950928 587  0.1-  0.7-    970222 046  0.4+  0.2-    041007 699 (2.5-  1.5-) 

950928 605  0.2-  0.5+    970222 046  0.5+  0.1-    041007 699 (3.0-  1.7-) 

950928 605  0.3+  0.1+    970222 046  0.5+  0.3+    041007 699 (3.6-  1.8-) 

950928 605  0.4-  0.6-    970223 118  1.0+  0.4-    041007 349  0.2+  0.1+  

950928 605  0.2+  0.2+    970223 118  1.5+  0.5-    041007 349  0.4+  0.2+  

950929 118  0.2+  0.5-    970307 360  1.0+  0.5-    041007 349  0.4+  0.2+  

950930 118  0.4+  0.7-    970307 360  0.9+  0.4-    041009 415  0.5+  0.6+  

951003 900 (0.8-  2.8-)   970323 118  0.4+  0.0     041009 415  1.0+  0.7+  

951004 118  0.3+  0.2+    970323 118  0.9+  0.5+    041009 415  0.9+  0.6+  

951005 118  0.3+  0.6+    970331 360  1.0+  0.0     041010 704  0.3+  0.3+  

951005 605 (1.4-  4.6+)   970331 360  0.8+  0.1+    041010 704  0.1+  0.8+  

951005 605 (2.3-  0.0 )   970428 118  0.5+  0.9+    041010 704  0.1-  0.5+  

951006 605  0.9-  0.7+    970428 118  0.7+  0.4+    041010 704  0.1-  0.4-  

951006 605  0.1-  0.1-    971231 691  0.6-  0.8-    041010 704  0.0   0.2+  

951011 118  0.1+  0.1+    971231 691  1.3-  0.8-    041010 213  0.6+  0.9+  

951013 587  0.4+  0.9+    1998/                     041010 213  0.2-  0.4+  

951013 587  0.3+  0.3+    980126 557 (3.0-  0.3-)   041010 213  0.1+  0.7+  

951013 118  0.4+  0.1+    980126 557 (3.0-  0.3-)   041011 750  0.3-  0.6-  

951014 108 (1.2+  3.1+)   980131 691  1.5-  1.2-    041011 750  0.6-  0.2-  

951014 108 (2.4+  1.2-)   980204 118  0.9-  1.1-    041011 900  0.5-  0.8-  

951014 108  0.3-  1.6-    980204 118  0.7-  1.0-    041011 900  1.1-  0.2-  

951014 108  0.1-  1.3-    980204 118  0.8-  1.4-    041012 J78  0.3+  0.3-  

951016 108 (3.2+  0.5+)   980205 118  0.7-  1.1-    041013 A33  0.5+  0.1-  

951016 108  0.3+  1.5-    980205 118  0.8-  1.3-    041013 A33  0.3+  0.1-  

951017 360  0.2+  0.4-    980207 118  0.2-  1.9-    041015 J78  1.5-  1.9-  

951017 360  0.4+  0.2-    980207 118  0.3-  1.7-    041016 360  0.1+  0.3+  

951017 587  0.1-  0.2-    980218 118 (0.3-  2.0-)   041016 360  0.2+  0.3+  

951017 587  0.7-  0.2-    980218 118  0.2-  1.9-    041016 A33  0.3+  0.1+  

951019 118  0.2+  0.6-    980218 118  0.5-  1.7-    041016 A33  0.6+  0.1+  

951020 897  1.9+  0.1-    980221 118  0.4+  1.1-    041017 349  0.4+  0.4+  

951020 897  0.5+  1.0-    980221 118  0.0   1.5-    041017 349  0.3+  0.4+  

951020 410  1.2-  0.7-    980223 118  0.4-  0.7-    041017 349  0.2+  0.1+  

951020 410  0.2-  0.8-    980223 118  0.1-  0.8-    041021 704  1.3+  0.8+  

951020 410  0.8-  0.5-    980301 688  0.9+  1.9-    041021 704  1.2+  0.6-  

951020 897  0.6-  0.9-    980301 688 (2.4+  2.5-)   041021 704  0.4+  0.4+  

951020 360  0.0   0.3-    980302 402  0.7-  0.3+    041021 704  0.0   0.3+  

951020 360  0.0   0.4-    980302 402  1.6-  0.7-    041021 704  0.3-  0.1+  

951021 046  0.5-  0.1+    980302 402  0.5-  0.6-    041023 213  0.4+  0.2+  

951021 046  0.6+  0.4-    2003/                     041023 213  0.4+  0.2+  

951021 046  0.2-  0.1-    030802 360  0.4+  0.4-    041023 213  0.3+  0.4+  

951022 118  0.2-  0.7-    030802 360  0.4-  0.3-    041024 I77  0.5-  0.3-  

951025 360  0.2-  0.3-    030820 204 (2.1-  0.0 )   041024 I77  0.6+  0.2+  

951025 360  0.1+  0.4-    030820 442  1.4+  0.6+    041024 I77  0.0   0.4-  

951026 108 (2.3-  2.1-)   030820 204  0.0   1.1+    041029 213  0.3+  0.4-  

951026 108  0.6+  0.0     030823 461  0.7+  1.1+    041029 213  0.0   0.2-  

951027 897  0.5-  0.4-    030823 461  0.2+  0.4+    041029 213  0.5-  0.7+  

951027 897  0.6-  0.4-    030823 461  0.2-  0.1-    041103 213  0.3+  0.4+  

951027 410  0.3-  0.3-    030823 461  1.3-  0.2-    041103 213  0.1+  0.4+  

